Regional Weather Roundup
Issued by NWS

Home | Current Version | Previous Version | Text Only | Print | Product List | Glossary Off
Versions: 1 2 3 4 5 6 7 8 9 10 11 12 13 14 15 16 17 18 19 20 21 22 23 24 25 26 27 28 29 30 31 32 33 34 35 36 37 38 39 40 41 42 43 44 45 46 47 48 49 50

000
ASUS43 KBIS 041401
RWRND

NORTH DAKOTA REGIONAL WEATHER ROUNDUP
NATIONAL WEATHER SERVICE BISMARCK ND
800 AM CST WED MAR 04 2015

NOTE: "FAIR" INDICATES FEW OR NO CLOUDS BELOW 12,000 FEET WITH NO
SIGNIFICANT WEATHER AND/OR OBSTRUCTIONS TO VISIBILITY.


NDZ001>003-009>011-017-041500-
NORTHWEST NORTH DAKOTA

CITY           SKY/WX    TMP DP  RH WIND       PRES   REMARKS
WILLISTON      CLEAR    -10 -18  67 NW10      30.28R WCI -29
MINOT          CLEAR    -12 -21  64 W16       30.22R WCI -35
MINOT AFB      CLEAR    -13 -21  69 NW17      30.22R WCI -38
$$

NDZ018>021-031>035-040>046-041500-
SOUTHWEST NORTH DAKOTA

CITY           SKY/WX    TMP DP  RH WIND       PRES   REMARKS
BISMARCK       CLEAR     -4 -13  65 NW17      30.25R WCI -26
DICKINSON      CLEAR     -6 -13  71 NW12      30.16R WCI -25
GARRISON         N/A    -11 -18  71 NW18      30.21R WCI -36
HETTINGER ARPT CLEAR     -5 -12  72 NW9       30.18R WCI -22
$$

NDZ004>008-012>016-024-026-027-054-041500-
NORTHEAST NORTH DAKOTA

CITY           SKY/WX    TMP DP  RH WIND       PRES   REMARKS
GRAND FORKS    FAIR      -8 -16  67 NW10      30.20R WCI -26
GRND FRKS AFB  CLEAR     -9 -18  65 NW9       30.20R WCI -27
DEVILS LAKE    CLEAR    -11 -22  58 NW14      30.17R WCI -33
$$

NDZ022-023-025-028>030-036>039-047>053-041500-
SOUTHEAST NORTH DAKOTA

CITY           SKY/WX    TMP DP  RH WIND       PRES   REMARKS
FARGO          CLEAR     -3 -13  62 NW13      30.20R WCI -22
JAMESTOWN      CLEAR     -6 -14  68 NW15      30.17R WCI -27
$$



USA.gov is the U.S. government's official web portal to all federal, state and local government web resources and services.